Theta_e
324 318 318 319 309 308 303 305 311 311 312 317 318 315 312 314 312 305 323 323 323 325 328 329 334 335 336 336 336 336 336 337 335 334 332 330 328 327 326 325 324 324 325 326 326 326 325 324 324
319 317 318 316 305 299 301 308 309 313 316 318 317 317 313 310 317 318 319 321 320 320 322 324 329 328 328 328 328 329 329 329 328 327 326 325 325 323 322 321 321 322 323 324 324 324 324 323 322
319 316 311 310 304 299 300 309 310 312 313 313 312 316 314 311 317 318 321 319 318 317 320 322 326 326 326 325 324 323 323 322 322 322 321 321 321 321 320 320 319 320 321 322 323 323 322 322 321
312 312 312 303 297 301 304 307 310 310 313 314 313 309 315 318 317 320 321 321 318 317 317 320 323 324 324 323 323 322 321 321 320 320 319 319 318 318 318 318 317 318 319 320 321 320 320 319 319
313 311 303 299 297 299 302 305 306 307 309 310 312 308 311 317 320 320 319 319 317 317 318 317 320 320 321 321 321 320 320 319 319 318 318 317 316 317 316 316 316 317 318 319 319 318 318 317 317
308 308 300 295 296 299 300 303 306 305 308 309 310 309 312 319 317 317 319 318 319 316 316 316 318 319 319 319 318 318 318 318 317 316 316 316 314 314 315 314 314 315 316 316 316 316 316 316 316
307 304 299 297 296 298 298 302 302 303 306 307 311 307 313 315 318 319 319 316 313 312 312 311 312 314 318 316 314 315 315 315 315 314 314 314 314 313 313 313 313 315 316 315 315 315 314 315 315
305 304 299 298 296 294 297 299 302 305 305 312 312 306 307 315 319 318 314 311 311 310 308 307 308 309 308 309 314 313 313 312 313 314 314 315 316 316 313 313 311 313 314 314 314 314 314 315 314
308 300 296 295 296 293 297 298 305 307 306 307 311 312 316 319 319 312 310 310 309 308 305 304 304 304 305 307 309 313 315 316 316 311 310 310 307 307 307 312 312 313 313 313 314 313 314 313 312
301 299 293 294 294 293 294 295 297 299 303 305 307 312 314 313 312 310 308 306 304 302 302 300 300 301 302 306 305 306 308 308 307 302 299 302 302 303 304 304 309 306 310 310 311 311 312 311 303
298 294 295 294 296 295 295 294 296 295 296 299 302 308 310 310 309 307 305 303 301 301 299 298 297 298 298 299 301 300 301 301 301 297 295 296 297 296 294 294 294 295 300 297 298 297 300 300 302
293 296 297 297 296 295 294 295 293 295 296 304 306 308 308 307 305 303 302 300 298 297 297 296 294 295 295 296 295 295 294 295 295 294 294 293 292 291 290 290 291 292 293 292 292 293 294 294 295
294 294 296 296 295 293 294 292 291 292 297 303 305 307 305 305 303 301 301 299 297 295 294 292 291 291 293 293 293 293 292 292 293 292 293 291 289 288 289 289 290 290 291 289 289 290 292 292 293
296 295 294 295 295 294 292 291 290 292 299 303 305 304 304 303 302 300 299 296 294 294 292 292 290 291 291 291 291 291 291 291 291 291 290 291 290 288 287 288 289 288 288 288 288 289 289 290 291
296 293 294 293 294 293 293 291 290 293 300 300 302 302 303 301 300 298 295 294 292 292 291 290 289 291 290 289 290 291 291 291 290 290 290 290 290 288 287 287 287 288 288 288 288 288 289 288 289
295 294 289 293 294 292 291 286 294 294 294 296 299 301 301 301 298 296 294 292 290 290 289 290 291 290 289 289 289 290 290 289 289 289 289 289 289 288 286 286 286 288 287 287 286 286 286 286 286
294 287 288 290 293 291 291 287 293 294 294 292 295 298 299 299 296 294 292 290 289 288 288 288 288 288 288 288 289 289 289 288 288 288 288 288 289 289 286 286 286 287 286 286 286 286 285 284 284
283 283 287 286 288 287 285 286 290 293 292 292 293 295 298 298 297 295 292 290 288 287 287 287 288 287 287 288 287 287 287 287 287 287 287 288 288 288 286 286 285 286 285 284 285 284 284 284 284
287 286 285 289 287 285 285 286 289 291 291 288 290 291 294 297 298 295 292 290 288 287 287 287 286 286 286 284 283 283 283 284 285 286 287 287 287 288 285 285 285 284 283 283 283 283 282 282 283
287 284 284 286 287 285 284 284 288 287 286 287 288 289 292 296 295 293 290 289 288 287 287 286 286 286 285 285 284 283 283 284 285 286 286 286 286 286 286 284 284 283 283 282 282 282 281 281 282
285 281 280 280 285 286 284 284 287 286 287 288 289 290 291 292 294 292 290 289 287 286 286 286 286 286 285 285 285 284 284 283 283 283 284 284 285 285 285 284 284 283 283 282 282 282 281 279 280
281 285 284 282 280 278 283 277 287 285 285 285 287 287 288 290 293 294 292 289 288 287 285 285 286 286 286 285 284 282 280 280 281 282 283 283 284 283 284 284 283 282 282 281 281 282 281 280 278
284 285 282 281 278 278 279 275 286 284 284 286 285 286 287 288 291 291 290 290 288 286 284 285 285 286 286 285 283 281 280 281 281 281 280 281 282 283 283 282 282 281 281 281 280 280 279 280 278
286 283 282 280 280 279 273 275 280 284 284 285 286 286 287 287 287 289 289 288 285 285 284 284 285 285 285 283 282 280 279 279 278 278 278 279 280 280 281 281 281 281 280 280 280 280 279 278 278
284 282 279 277 278 278 269 274 281 286 286 285 285 285 285 285 286 287 286 285 284 283 284 285 284 282 282 281 280 279 279 278 277 277 277 277 277 278 278 279 278 278 279 278 278 279 278 278 277
279 278 277 269 274 275 269 273 283 285 285 286 286 285 286 285 286 285 285 284 283 283 283 281 280 279 280 279 278 278 278 277 277 277 277 276 276 277 277 277 277 277 277 277 277 276 277 278 278
280 280 277 273 266 269 277 283 288 283 284 285 284 285 284 284 283 284 283 282 282 281 279 279 278 278 278 277 277 277 277 277 276 276 276 276 276 276 276 275 276 275 275 275 275 275 274 275 276
281 280 278 278 271 269 277 276 280 282 280 281 284 283 282 281 281 281 280 280 280 279 278 278 277 276 276 276 276 276 276 276 275 275 274 274 274 274 274 273 273 272 272 273 272 272 272 274 275
277 278 278 278 277 272 272 278 286 280 280 277 278 281 275 275 277 277 278 279 278 278 277 276 275 275 275 275 275 274 274 274 274 273 273 272 272 272 271 270 270 270 270 270 270 270 270 271 272
279 280 281 276 274 275 274 276 281 279 278 277 278 280 276 274 275 276 277 277 277 276 275 274 274 274 274 273 273 273 273 272 271 271 271 271 270 269 269 269 268 268 268 268 268 268 269 269 270
Wind_Speed
15 10 5 3 2 5 4 6 2 8 8 11 10 10 13 11 5 4 4 10 11 11 12 14 19 21 20 20 19 18 18 17 15 14 13 12 12 12 11 11 11 11 12 11 11 11 12 12 13
7 8 2 4 1 3 3 4 14 12 10 7 8 8 9 6 5 5 2 10 9 8 9 11 16 19 17 17 17 16 15 14 13 12 11 11 11 11 11 11 11 11 11 11 11 11 11 11 11
9 8 2 2 5 1 5 12 11 8 5 5 6 11 6 3 4 3 5 4 4 6 8 11 16 17 16 15 15 14 13 12 12 12 12 11 11 10 10 11 11 11 11 11 12 12 12 12 12
4 2 4 2 10 9 11 10 10 8 7 6 12 9 6 4 2 3 2 2 2 3 6 11 15 15 15 14 14 13 13 12 12 12 12 11 12 12 12 12 12 12 12 12 12 12 12 12 12
4 4 0 6 9 7 9 6 2 8 5 6 3 7 5 3 6 4 2 2 4 5 4 6 11 11 13 14 14 14 13 13 13 13 13 12 11 11 12 12 12 13 13 13 13 13 13 13 12
3 2 3 4 6 6 6 6 7 8 8 5 9 7 4 7 5 3 3 3 3 4 6 7 7 6 7 10 11 12 12 12 11 11 13 12 10 11 11 12 12 14 14 14 14 14 14 14 14
4 4 5 9 7 5 5 5 10 5 4 5 8 4 6 7 5 5 4 3 5 5 5 6 6 8 4 7 10 9 10 11 12 12 13 13 11 9 10 12 12 16 15 15 16 16 16 16 16
3 2 5 5 6 4 3 3 6 7 5 2 6 3 5 8 7 5 5 5 4 6 7 7 7 7 7 6 7 3 5 5 7 13 14 16 12 11 15 12 11 15 15 15 16 16 16 17 18
2 2 4 5 6 4 3 1 3 3 5 3 4 5 7 10 10 6 5 6 6 6 7 7 7 7 7 5 7 5 4 5 8 11 16 11 5 6 8 10 10 13 15 16 16 14 17 16 16
7 4 6 6 6 5 4 4 3 2 5 4 4 6 6 7 8 8 3 5 7 7 6 6 6 6 6 7 6 6 6 5 5 6 7 6 7 8 11 12 17 19 18 16 18 19 18 12 4
7 4 5 5 4 6 3 2 0 4 6 5 6 11 9 7 6 2 3 6 4 4 4 5 5 6 7 6 4 3 3 4 4 7 6 6 6 5 5 4 5 5 10 6 9 9 7 9 7
6 5 4 2 2 4 2 5 4 7 1 5 5 4 7 5 3 4 2 5 3 3 5 6 7 6 6 4 4 5 4 4 4 4 7 5 4 5 5 4 6 5 4 6 6 6 10 9 10
6 3 4 2 3 3 6 6 4 8 4 4 2 1 5 5 6 5 2 4 2 5 6 6 6 6 5 5 4 4 4 4 5 4 5 4 4 4 5 5 5 5 5 5 8 8 8 10 10
4 6 4 1 2 1 4 5 2 6 8 7 7 7 8 6 5 5 4 2 2 3 5 5 4 5 6 5 5 4 3 5 4 4 4 5 4 4 5 5 5 5 4 5 8 8 9 8 9
4 2 4 1 3 2 5 7 12 9 8 8 9 8 6 6 4 5 4 2 4 3 2 3 4 5 6 5 5 4 3 5 4 4 5 6 5 5 5 5 6 6 5 8 8 9 8 9 8
2 1 3 1 5 3 2 10 8 11 9 9 9 9 8 7 4 3 3 1 2 1 2 1 4 6 6 6 5 4 4 3 4 3 4 5 6 6 5 5 6 7 5 6 7 8 8 8 9
1 3 5 2 1 3 6 10 4 7 8 9 10 9 9 9 9 6 6 3 2 1 2 3 4 5 6 6 4 5 6 3 4 4 4 5 6 6 5 6 7 9 7 7 8 8 8 10 10
4 4 6 7 2 3 9 23 17 14 15 11 9 8 10 8 8 7 7 4 1 2 2 3 3 5 6 5 5 5 5 5 5 4 4 5 4 6 5 6 8 8 8 8 8 11 9 10 9
6 7 9 7 4 7 8 19 19 12 9 8 8 8 7 10 9 9 8 5 4 4 2 4 5 4 4 3 3 3 4 4 4 5 7 5 5 5 6 7 7 8 8 10 11 10 12 9 9
6 7 7 6 2 6 9 23 17 2 3 4 4 7 7 6 8 8 7 6 6 4 1 1 3 4 4 3 3 3 4 4 5 4 5 8 6 7 9 9 8 8 8 10 10 10 10 10 8
1 2 4 6 12 6 10 10 3 0 2 4 7 7 7 2 7 7 8 8 5 4 3 2 3 4 3 4 4 4 5 5 4 6 7 5 9 10 10 11 8 10 8 8 10 10 13 11 8
4 6 6 8 6 4 6 7 7 3 2 1 2 2 5 5 2 4 6 7 7 5 6 3 2 5 5 6 5 6 5 7 6 8 7 9 11 10 12 9 11 11 8 10 9 9 10 11 12
3 5 4 2 3 6 3 3 10 1 2 4 4 3 4 5 2 5 4 3 6 7 5 4 3 4 6 6 6 4 6 6 7 8 11 10 10 10 11 14 12 11 8 9 11 12 11 9 10
9 4 2 1 2 3 3 4 9 2 1 3 4 6 6 8 5 5 7 7 6 5 4 2 2 3 6 7 7 7 8 9 9 10 9 9 9 10 11 13 12 12 12 12 12 13 13 12 11
3 5 5 7 5 6 3 2 13 6 5 4 6 7 8 7 7 5 5 4 4 1 5 5 8 7 6 7 7 8 9 10 11 12 10 13 10 10 12 13 13 12 13 14 14 15 15 14 12
3 2 4 4 4 6 1 8 8 3 5 5 6 6 5 9 8 8 8 7 8 8 9 8 6 6 7 7 7 8 9 7 9 10 11 10 11 11 13 13 14 16 15 14 14 12 13 15 13
2 1 1 0 2 3 5 7 8 4 6 7 6 6 9 9 8 9 9 9 7 7 6 7 7 7 7 7 7 10 10 11 11 14 12 10 13 12 15 16 16 16 17 16 17 12 14 16 15
1 1 3 2 7 8 6 5 8 3 1 4 6 5 6 6 7 7 6 6 6 5 6 7 7 7 7 9 9 10 12 12 13 13 14 15 14 16 17 17 17 17 17 17 17 15 15 16 14
1 1 3 1 3 4 7 8 5 4 5 5 2 2 2 2 4 4 4 4 5 7 7 6 7 8 9 10 10 11 12 13 13 13 14 14 16 16 17 18 17 17 17 16 16 17 18 17 17
1 2 5 5 6 5 3 14 2 5 7 5 3 2 4 2 3 3 5 6 5 7 7 7 8 8 9 10 11 12 13 13 13 13 14 15 16 16 17 17 17 16 16 16 17 17 17 17 17
Wind_Direction
316 320 311 278 248 58 6 157 319 68 74 56 60 67 94 38 12 73 98 21 1 16 23 37 41 47 45 45 45 45 43 42 44 41 37 32 30 26 24 20 18 12 9 3 2 2 1 358 356
312 302 233 268 137 117 197 166 69 60 82 121 52 82 41 77 30 84 60 19 20 4 31 38 45 52 48 47 44 40 39 37 35 33 30 26 21 18 15 12 11 9 2 357 353 354 353 350 350
274 284 283 269 54 72 106 85 84 78 51 33 118 58 47 26 77 66 51 31 28 24 33 38 43 46 45 43 42 38 33 31 29 25 20 16 12 8 5 4 3 358 354 348 347 346 346 342 342
314 208 267 359 97 29 76 50 105 127 117 62 110 91 104 49 54 63 77 310 147 81 64 47 44 42 40 36 34 31 30 25 22 19 15 11 9 5 1 1 358 352 345 343 342 339 336 333 333
229 264 84 59 70 74 50 53 12 82 74 27 352 111 82 82 97 114 135 59 53 41 48 76 52 38 40 33 27 25 23 20 18 14 10 4 1 2 358 354 351 348 342 340 335 332 328 326 324
289 290 113 138 96 90 77 5 50 61 104 20 99 109 94 128 144 166 193 135 75 59 35 31 41 36 53 50 34 22 21 19 16 13 6 357 353 356 354 352 349 345 340 335 331 328 323 320 317
310 4 69 96 114 118 69 324 23 27 102 58 340 94 122 154 162 176 130 94 118 59 45 27 15 10 54 65 47 23 16 14 12 8 3 347 332 334 352 344 351 344 337 334 330 325 321 317 315
325 53 80 92 178 77 41 64 343 31 67 135 349 167 176 154 167 143 169 191 122 79 42 25 12 10 354 345 52 24 18 359 10 9 2 336 331 351 3 352 337 336 336 332 326 323 320 319 314
304 75 105 17 29 104 176 229 85 279 108 53 12 54 105 141 156 191 198 203 79 44 54 21 11 9 351 344 4 20 6 357 32 28 1 344 345 356 344 336 329 331 329 325 323 324 319 310 298
37 50 38 4 1 68 65 330 52 245 157 159 130 119 127 162 186 208 200 36 43 36 30 32 9 8 360 357 343 7 22 359 24 43 7 349 342 9 359 345 354 349 337 338 341 331 329 326 303
3 62 130 45 355 351 37 211 5 270 237 209 192 163 172 186 205 17 45 89 61 44 47 42 13 9 12 345 351 4 13 357 15 35 22 345 351 7 352 336 343 335 336 344 340 335 327 325 306
101 39 37 353 349 310 339 339 261 225 296 41 32 84 147 205 169 75 16 50 46 51 37 38 27 8 9 3 359 5 7 9 0 33 29 359 354 358 345 342 333 331 321 341 341 326 316 308 314
88 152 86 94 40 12 328 267 285 264 194 128 136 116 206 193 124 137 170 155 43 42 33 22 37 10 1 17 353 359 3 5 339 30 25 18 355 352 327 333 324 324 334 347 331 314 310 308 304
103 97 112 65 48 60 320 283 58 254 149 171 173 215 224 190 172 148 190 131 61 62 46 15 20 19 356 5 4 350 23 330 354 4 4 22 356 346 343 327 322 316 336 331 311 307 307 306 304
166 88 184 127 7 341 310 277 228 213 151 203 194 218 203 189 164 250 62 42 11 68 60 27 351 36 4 0 341 339 12 345 350 346 355 10 360 336 339 321 323 319 325 320 312 308 305 302 309
213 282 299 76 343 159 4 273 339 144 161 217 227 198 209 205 185 195 131 221 173 345 20 51 4 14 2 347 335 332 336 345 328 342 345 9 346 332 335 324 316 313 309 308 301 299 299 307 303
42 296 340 230 138 299 211 273 201 173 204 223 225 208 189 196 176 197 167 205 177 268 322 354 13 22 1 339 337 337 333 347 341 338 341 345 331 329 340 322 310 310 314 306 306 309 314 308 304
328 328 323 301 87 320 273 265 268 252 220 219 225 240 192 184 182 175 167 183 220 262 312 334 357 30 1 355 351 349 340 345 332 313 320 320 331 327 330 312 309 311 309 308 305 305 298 298 299
292 300 294 293 45 339 259 274 283 272 255 212 224 236 234 181 166 152 156 167 210 237 281 334 17 5 17 359 359 330 320 315 308 302 297 340 323 310 309 304 300 304 305 304 303 303 302 302 306
285 298 301 314 75 344 305 297 288 359 342 0 321 205 240 158 149 150 151 183 214 241 278 334 3 15 360 7 335 309 313 303 299 300 343 327 312 307 305 301 296 298 299 299 302 304 303 297 299
284 311 355 288 322 258 300 286 160 220 327 3 340 342 347 156 176 161 173 202 193 204 219 64 1 359 343 351 342 329 323 312 313 327 313 311 313 307 306 299 296 296 295 298 300 301 301 300 308
305 31 338 313 5 306 32 286 315 157 190 172 342 299 294 307 146 148 182 179 183 182 111 86 352 346 339 2 340 333 314 311 313 310 310 314 309 314 300 309 307 297 294 291 294 296 300 297 299
301 341 302 359 348 359 14 56 271 107 142 96 111 178 223 217 219 173 175 111 95 94 87 50 346 347 352 355 347 322 310 310 311 313 312 313 312 306 316 310 306 302 298 296 297 294 292 294 293
303 328 229 296 198 4 251 94 285 32 22 122 126 92 50 18 38 62 81 85 89 85 112 229 341 358 4 357 340 334 324 317 321 318 317 314 315 312 309 305 304 312 309 304 302 296 290 288 283
295 14 340 356 359 231 301 347 247 284 58 69 71 55 41 21 27 37 35 73 108 69 47 21 30 11 357 348 346 335 321 327 323 322 317 316 313 310 308 318 308 308 308 306 305 303 297 290 282
351 99 128 282 296 279 316 234 258 130 109 90 85 85 63 52 36 37 43 50 49 39 37 34 12 357 354 350 334 338 334 329 322 319 318 310 308 311 314 316 316 310 311 311 309 303 301 296 287
334 65 40 241 84 41 236 281 300 52 42 69 68 69 65 51 27 20 45 47 40 44 35 23 12 357 352 345 343 336 335 327 324 318 314 316 319 321 323 316 314 319 314 314 310 308 306 302 293
95 325 35 341 335 308 283 273 246 277 51 341 61 46 40 36 30 40 42 40 38 41 36 17 5 355 350 354 345 336 329 329 325 326 325 328 327 326 322 324 325 324 319 317 314 307 303 304 300
42 30 39 119 152 221 297 258 225 181 181 169 254 103 103 50 64 45 53 39 44 43 24 355 5 354 358 347 341 331 332 331 330 331 330 332 327 328 330 322 319 324 323 320 318 313 310 311 310
319 201 187 141 260 228 194 271 3 176 179 170 211 161 103 115 96 22 39 34 31 30 4 1 355 357 352 346 332 334 331 332 334 332 332 329 332 325 323 324 323 320 321 319 315 311 308 303 303